TimeMDT,TemperatureF,Dew PointF,Humidity,Sea Level PressureIn,VisibilityMPH,Wind Direction,Wind SpeedMPH,Gust SpeedMPH,PrecipitationIn,Events,Conditions,WindDirDegrees,DateUTC
12:53 AM,46.9,26.1,44,29.94,10.0,Variable,3.5,-,N/A,,Clear,0,2013-04-05 06:53:00
1:53 AM,45.0,26.1,48,29.94,10.0,WSW,8.1,-,N/A,,Clear,240,2013-04-05 07:53:00
2:53 AM,43.0,25.0,49,29.92,10.0,WSW,4.6,-,N/A,,Clear,250,2013-04-05 08:53:00
3:53 AM,42.1,26.1,53,29.91,10.0,West,3.5,-,N/A,,Clear,270,2013-04-05 09:53:00
4:53 AM,42.1,25.0,51,29.91,10.0,Variable,3.5,-,N/A,,Clear,0,2013-04-05 10:53:00
5:53 AM,43.0,26.1,51,29.89,10.0,Calm,Calm,-,N/A,,Partly Cloudy,0,2013-04-05 11:53:00
6:53 AM,42.1,27.0,55,29.90,10.0,NNE,3.5,-,N/A,,Mostly Cloudy,30,2013-04-05 12:53:00
7:53 AM,43.0,27.0,53,29.91,10.0,West,4.6,-,N/A,,Scattered Clouds,270,2013-04-05 13:53:00
8:53 AM,46.9,27.0,46,29.92,10.0,Variable,6.9,-,N/A,,Mostly Cloudy,0,2013-04-05 14:53:00
9:53 AM,52.0,27.0,38,29.87,10.0,Variable,4.6,-,N/A,,Scattered Clouds,0,2013-04-05 15:53:00
10:53 AM,57.9,26.1,30,29.83,10.0,North,6.9,-,N/A,,Scattered Clouds,10,2013-04-05 16:53:00
11:53 AM,62.1,24.1,23,29.80,10.0,WNW,8.1,-,N/A,,Partly Cloudy,290,2013-04-05 17:53:00
12:53 PM,66.0,21.9,19,29.76,10.0,West,27.6,38.0,N/A,,Mostly Cloudy,260,2013-04-05 18:53:00
1:53 PM,66.9,21.9,18,29.75,10.0,West,29.9,38.0,N/A,,Overcast,260,2013-04-05 19:53:00
2:53 PM,66.0,21.9,19,29.73,10.0,West,23.0,38.0,N/A,,Overcast,260,2013-04-05 20:53:00
3:36 PM,68.0,24.8,20,29.86,10.0,SW,23.0,36.8,N/A,,Mostly Cloudy,220,2013-04-05 21:36:00
3:53 PM,64.9,26.1,23,29.73,10.0,SW,28.8,36.8,N/A,,Scattered Clouds,220,2013-04-05 21:53:00
4:41 PM,64.4,26.6,24,29.83,10.0,South,11.5,23.0,N/A,,Partly Cloudy,190,2013-04-05 22:41:00
4:53 PM,64.0,26.1,24,29.72,10.0,SSW,8.1,21.9,N/A,,Mostly Cloudy,200,2013-04-05 22:53:00
5:17 PM,62.6,28.4,27,29.84,10.0,NW,16.1,29.9,N/A,,Overcast,320,2013-04-05 23:17:00
5:26 PM,60.8,28.4,29,29.85,10.0,NW,18.4,29.9,N/A,,Overcast,320,2013-04-05 23:26:00
5:53 PM,50.0,37.9,63,29.85,10.0,NW,28.8,44.9,0.00,Rain,Light Rain,320,2013-04-05 23:53:00
6:53 PM,50.0,37.9,63,29.88,10.0,North,13.8,23.0,0.00,,Mostly Cloudy,350,2013-04-06 00:53:00
7:53 PM,50.0,37.0,61,29.87,10.0,SW,8.1,-,N/A,,Overcast,220,2013-04-06 01:53:00
8:53 PM,46.9,39.0,74,29.89,10.0,South,3.5,-,N/A,,Mostly Cloudy,180,2013-04-06 02:53:00
9:53 PM,46.9,37.9,71,29.91,10.0,NNE,5.8,-,N/A,,Overcast,20,2013-04-06 03:53:00
10:53 PM,46.0,37.9,73,29.91,10.0,WSW,6.9,-,N/A,,Mostly Cloudy,240,2013-04-06 04:53:00
11:53 PM,45.0,36.0,71,29.91,10.0,Calm,Calm,-,N/A,,Mostly Cloudy,0,2013-04-06 05:53:00